Powrót do katalogu

KINEIS-2E

AktywnyŁącznośćSSO
NORAD 62931·PAYLOAD·🇫🇷 France

Wystrzelony Feb 8, 2025 z Rocket Lab Launch Complex 1

Loading…

Następne Przeloty (najbliższe 24 godziny)

TLE

ŚwieżeSource: Space-Track

Epoka: Sep 14, 2026, 13:47 UTC

1 62931U 25028D   26257.57462059  .00000880  00000-0  13140-3 0  9996
2 62931  97.8872 307.2783 0001037 112.2383 247.8938 14.77209910 85975

Śledź KINEIS-2E w czasie rzeczywistym z AllMySat

Download on the App Store